Wind_Speed
32 34 36 38 40 41 42 42 40 39 39 39 40 40 40 40 40 39 39 39 37 35 34 31 31 34 36 35 33 31 31 30 27 24 24 26 29 28 25 26 30 32 32 31 29 27 25 24 22 20 18 16 14 13 11 9 8 6 5 5 5 7 8 10 11 11 10 13 14 15 17 18 18 20 21 22 24 24 25 26 26 28 28 28 29
30 31 33 35 37 38 39 40 39 38 38 39 39 39 39 40 39 38 38 38 36 35 32 30 29 33 36 36 33 31 32 31 28 25 23 25 27 24 23 28 32 33 32 31 29 28 26 24 23 21 19 17 15 13 11 9 8 6 6 5 6 7 9 10 12 13 12 12 14 15 16 18 19 20 22 23 24 25 25 26 26 27 28 28 29
28 29 31 33 35 37 38 38 37 37 38 38 38 38 38 38 37 37 37 36 35 33 30 28 28 32 36 35 33 31 31 33 32 26 21 23 24 22 23 29 33 32 32 30 29 28 26 25 24 21 19 17 15 13 11 10 8 6 6 6 7 8 10 11 12 14 14 13 14 15 16 18 19 21 22 23 24 25 25 26 26 27 27 28 28
26 27 28 29 31 33 35 35 35 36 37 38 38 37 36 35 35 36 36 35 34 31 29 27 27 31 35 35 33 30 31 36 34 24 20 23 23 23 24 29 33 32 31 30 29 28 27 25 24 22 20 18 15 14 12 10 8 7 6 6 7 9 10 12 13 14 15 15 15 16 17 18 19 21 22 23 24 24 25 26 27 27 27 27 27
22 21 21 21 22 25 28 30 33 34 35 35 35 35 34 34 34 34 34 33 32 30 29 27 28 30 32 33 32 29 32 38 34 23 23 25 25 25 26 29 34 32 30 30 29 28 27 25 24 22 20 18 16 14 12 10 9 7 6 6 7 9 10 12 13 14 15 16 15 16 17 19 19 20 22 23 24 24 25 25 26 27 27 25 25
17 16 16 16 16 18 19 22 25 27 28 29 29 30 30 31 31 32 32 32 31 30 29 28 28 29 29 30 31 30 35 39 33 25 26 26 24 25 27 31 35 34 31 31 29 28 27 25 24 22 20 18 16 14 12 10 9 7 6 7 8 9 11 12 13 14 15 16 16 16 17 19 20 20 21 23 24 25 26 25 25 26 26 26 25
13 14 14 14 15 16 16 18 19 21 23 25 26 26 27 28 29 30 31 32 32 29 27 27 27 28 30 30 29 31 37 38 32 26 26 25 24 26 29 34 37 34 32 32 30 28 27 26 24 22 20 18 16 14 12 11 9 8 7 8 8 10 11 12 13 14 15 16 16 17 17 19 20 21 21 22 23 25 27 28 28 27 26 26 25
12 13 15 15 16 16 17 18 19 21 22 24 25 26 25 25 25 26 27 29 29 27 26 26 26 29 32 32 28 28 33 36 32 28 25 24 26 28 31 37 38 36 34 32 31 30 28 26 24 22 20 18 16 15 13 12 10 8 8 8 9 10 11 12 13 14 15 15 16 17 18 19 20 21 21 22 23 25 27 28 29 29 28 26 25
12 13 14 15 16 16 16 17 19 20 22 23 25 25 25 24 24 25 26 26 26 26 25 25 27 29 31 32 29 27 30 35 34 29 25 24 25 28 33 38 38 36 35 33 32 31 29 27 25 23 21 19 17 16 14 13 11 9 9 9 10 11 12 13 14 14 14 15 16 17 18 19 20 21 21 22 24 25 27 27 28 29 29 27 24
11 12 13 14 15 15 15 16 17 19 20 21 23 23 24 25 25 26 26 26 26 26 26 27 28 28 28 31 31 28 30 35 35 29 25 23 24 28 35 39 38 37 36 34 33 32 29 28 26 23 22 20 18 17 15 14 12 10 10 10 11 12 13 14 14 14 14 15 16 18 18 19 20 21 22 23 24 25 26 27 28 29 29 29 26
11 12 13 14 14 15 15 15 16 17 18 19 20 21 22 24 25 26 26 27 27 27 26 27 28 27 28 31 32 29 28 32 33 30 24 22 24 30 36 39 38 37 36 35 33 32 30 28 26 24 23 21 19 18 16 15 13 12 11 11 11 12 13 14 14 14 14 15 17 18 19 19 20 21 22 23 24 25 26 27 28 29 29 30 29
13 13 13 13 14 14 14 14 14 15 16 16 17 18 19 20 22 24 25 26 27 27 28 27 27 27 29 31 32 31 29 29 31 30 25 22 26 31 36 39 39 37 36 35 33 31 30 29 27 25 23 21 20 19 17 16 14 12 11 11 12 13 14 14 14 14 15 16 17 18 19 20 20 21 22 23 24 25 25 26 27 27 28 28 28
15 15 14 14 14 14 13 13 13 13 14 14 15 15 15 15 16 18 20 21 23 24 26 27 27 28 29 30 33 34 33 32 31 29 26 24 27 33 37 38 38 37 37 36 34 32 30 29 28 26 24 23 22 20 19 17 14 13 12 12 13 14 15 15 14 14 15 16 17 18 19 20 21 21 23 23 24 24 25 26 26 26 27 26 26
17 17 17 16 15 14 13 12 11 12 12 13 14 13 13 12 12 12 14 15 16 18 21 23 25 26 27 29 33 36 35 32 29 26 25 26 28 34 37 37 37 37 36 35 34 32 31 29 28 26 25 24 23 22 20 17 15 13 13 12 13 15 15 16 15 15 16 16 17 18 19 20 21 22 22 23 23 24 25 25 26 26 26 25 23
19 19 19 17 16 15 13 12 11 12 12 12 13 13 12 12 12 12 13 14 16 17 19 21 23 23 23 25 30 34 32 28 24 23 24 27 31 35 36 36 36 36 35 34 33 32 31 29 28 27 26 25 24 22 20 18 15 14 13 13 14 15 16 16 17 17 17 17 18 18 19 20 21 22 22 23 23 24 24 25 25 26 25 24 22
18 18 17 16 15 15 14 13 13 12 12 12 12 13 13 13 13 13 14 15 17 18 20 20 20 20 20 22 27 31 28 23 22 21 22 27 32 36 37 37 37 36 36 34 33 32 31 30 29 28 27 26 25 23 21 18 16 14 13 13 14 15 16 16 17 18 18 18 18 19 20 21 21 22 22 23 23 24 24 24 24 25 24 24 22
15 16 15 14 14 14 14 14 13 12 12 12 12 12 13 14 14 15 16 16 17 17 18 18 18 18 18 21 26 28 24 21 21 20 21 26 33 37 38 38 38 38 36 34 33 32 31 31 30 29 28 27 26 25 22 18 16 15 13 13 14 15 15 16 17 19 19 19 18 19 20 21 21 22 22 22 23 23 24 24 24 24 23 24 23
13 14 14 14 14 14 15 15 14 13 12 12 12 13 13 14 14 15 16 17 17 17 16 17 18 19 19 20 24 25 22 20 20 21 22 27 34 38 39 39 40 39 37 35 34 33 32 32 31 30 29 28 27 25 22 19 17 15 14 14 14 14 15 17 18 20 20 19 19 20 20 21 21 22 22 22 22 23 24 23 23 23 23 22 22
12 12 13 14 15 15 14 14 14 13 12 12 13 13 14 15 15 16 16 16 17 17 18 18 18 20 21 22 23 24 23 22 21 22 25 31 36 40 41 41 40 39 38 37 35 34 34 33 32 31 31 29 28 25 22 19 17 16 15 15 14 14 16 17 19 21 21 20 20 20 21 22 22 22 22 22 23 23 23 23 22 22 23 21 21
13 13 14 15 15 15 15 14 14 13 13 12 13 13 14 16 17 18 18 18 17 18 18 18 19 20 22 24 25 26 26 25 24 25 29 34 39 41 41 41 41 40 39 38 37 36 35 34 34 33 32 30 28 26 23 20 18 17 17 16 15 15 16 18 20 22 22 21 21 21 22 22 22 22 22 22 23 23 22 22 22 21 22 21 20
15 16 16 16 16 16 15 15 14 14 13 13 13 14 14 15 16 17 18 18 19 19 20 20 21 23 25 27 29 30 31 30 28 29 31 35 39 41 41 40 40 39 38 38 37 36 36 35 35 34 33 31 29 26 23 21 20 19 18 17 16 17 18 19 21 24 25 23 22 22 22 22 22 22 22 22 22 23 22 21 21 21 22 21 21
17 16 16 16 16 16 16 15 15 14 14 14 13 13 13 14 15 16 17 18 19 20 22 23 25 28 30 32 34 35 35 34 32 31 32 34 38 40 40 39 38 37 37 37 37 36 35 35 35 34 33 31 29 27 24 22 22 21 20 18 18 19 19 20 23 26 26 24 22 22 22 22 22 23 23 22 22 23 22 20 20 20 21 21 21
16 15 15 15 15 15 15 14 14 13 13 13 13 12 12 13 14 15 16 18 20 21 23 25 27 30 31 32 32 32 31 30 29 29 31 33 36 39 39 38 38 37 37 37 35 34 33 33 34 33 32 31 29 27 25 24 25 24 22 20 20 20 21 22 25 27 26 23 23 23 22 22 23 23 23 23 22 23 22 21 20 20 20 20 20
14 13 13 12 12 12 12 12 12 12 12 12 12 12 12 13 13 14 15 17 18 20 21 22 23 25 25 26 26 26 26 26 27 28 30 32 35 37 38 38 38 37 37 36 34 33 32 32 33 33 32 31 30 28 28 28 28 26 24 22 22 22 23 24 25 26 26 24 24 24 23 23 24 23 23 23 23 23 22 21 20 20 20 20 19
11 10 10 9 9 10 10 10 10 10 11 11 11 12 12 12 13 13 14 15 16 17 17 18 19 20 20 21 21 22 24 25 25 27 29 32 35 37 37 38 37 37 37 36 35 33 32 31 31 32 32 32 32 31 31 31 30 28 25 23 23 23 24 24 25 26 26 24 24 25 25 24 24 24 23 23 23 23 23 21 21 20 20 20 18
10 9 9 9 9 9 9 9 9 9 9 10 9 9 10 10 11 11 12 13 13 14 15 16 17 18 19 19 20 21 22 24 25 26 29 32 35 36 36 36 36 36 37 37 36 35 34 32 32 32 34 34 35 35 35 33 32 30 28 26 26 25 25 26 25 25 26 26 26 26 26 25 25 24 23 22 23 23 23 22 21 20 21 20 19
10 10 10 10 9 9 8 8 8 7 7 8 7 8 8 8 8 9 9 10 11 11 12 13 14 15 16 16 18 19 21 23 24 26 29 32 34 35 35 36 36 37 38 38 38 37 36 35 35 35 36 37 39 39 38 36 34 33 31 29 28 27 27 28 26 26 26 27 28 29 27 26 25 24 23 23 23 23 23 23 21 20 20 21 20
10 10 10 9 8 7 7 6 6 6 6 6 6 6 7 7 7 8 8 9 9 10 10 11 11 12 13 14 15 18 19 21 21 23 26 29 31 33 35 36 37 38 39 39 39 39 39 39 38 39 40 41 43 44 42 40 38 36 34 32 30 29 29 29 28 28 28 30 30 30 28 26 25 24 23 23 23 23 23 23 22 20 20 21 20
9 8 7 6 6 5 5 4 4 5 5 5 5 5 6 7 7 8 8 9 9 10 10 11 11 12 13 13 15 17 18 18 18 19 23 26 29 32 34 36 37 38 39 40 40 41 41 41 42 43 44 45 47 48 46 43 41 38 36 34 33 31 30 30 30 30 30 31 32 31 28 27 25 24 24 23 23 22 23 23 22 21 20 20 20
7 6 5 4 4 3 3 3 3 4 5 5 6 6 7 7 8 8 8 9 10 11 11 12 12 13 14 14 15 17 18 17 17 19 22 25 27 30 32 34 36 38 39 41 42 43 43 44 45 46 47 48 50 51 49 47 44 40 38 36 34 32 31 31 31 32 32 33 33 31 29 28 26 24 24 23 22 22 22 23 23 22 21 21 20
5 4 3 2 2 2 2 3 4 5 6 7 7 8 8 9 9 10 10 10 11 11 12 13 13 14 14 14 15 17 18 19 19 20 21 23 25 27 29 31 34 36 38 40 42 43 45 46 48 49 49 50 52 52 51 49 45 41 38 36 35 34 33 32 32 33 34 34 34 32 30 28 26 24 24 23 23 22 22 22 23 23 22 22 21
4 3 2 2 1 1 2 3 4 5 6 7 8 8 9 10 10 11 12 12 13 13 13 14 14 15 15 16 16 16 18 20 21 21 22 23 24 26 27 29 32 34 35 37 41 43 45 47 49 51 52 52 53 53 52 50 47 43 39 37 36 35 34 33 32 33 35 35 34 33 31 29 27 25 24 23 23 22 22 22 23 23 23 22 21
4 4 3 3 2 2 2 3 3 4 5 6 7 8 9 9 10 11 11 13 13 14 14 15 15 16 16 17 18 18 18 20 21 22 22 23 24 25 27 29 31 32 34 37 40 42 44 46 49 51 52 54 54 54 53 51 49 46 42 39 37 36 34 33 33 34 36 36 35 33 31 30 28 26 24 24 23 23 22 22 23 23 23 22 21
5 4 4 3 3 2 2 3 3 4 5 6 7 8 8 9 10 10 11 11 12 12 13 14 15 16 16 17 18 19 19 20 21 22 23 23 24 25 27 29 31 33 35 37 40 41 42 45 47 50 51 53 53 53 52 51 50 48 44 41 38 36 34 34 35 36 36 37 35 33 32 31 28 26 25 24 24 23 23 23 23 24 23 22 21
5 5 4 3 3 2 2 3 3 4 5 6 7 7 8 9 10 11 12 12 12 13 13 13 14 14 15 16 17 18 19 19 20 22 23 23 23 24 27 30 33 34 36 38 40 42 43 44 46 47 49 50 51 51 51 51 50 49 47 44 41 39 37 36 36 36 37 37 36 34 33 31 29 27 26 25 24 24 23 23 23 24 23 22 20
6 5 4 3 3 2 2 2 3 4 5 6 7 8 9 9 10 11 12 12 13 13 14 14 14 14 14 15 15 16 17 18 19 20 21 22 23 24 27 30 33 34 36 38 40 41 43 44 45 46 47 47 48 49 49 49 49 50 49 48 46 44 41 39 37 37 37 37 35 34 33 32 30 28 27 25 24 24 24 23 23 23 22 21 19
6 5 4 3 2 2 3 3 4 5 6 6 7 8 9 10 10 11 11 12 12 13 13 13 14 14 14 14 15 15 16 17 18 19 19 21 22 24 26 29 31 32 35 37 38 40 42 43 43 44 44 45 45 46 46 47 48 48 49 48 46 44 42 39 38 38 37 36 35 35 35 34 32 29 27 26 25 24 23 23 23 22 21 20 19
5 4 3 3 3 4 5 5 5 6 6 7 7 8 8 9 9 10 10 10 11 11 11 12 12 13 13 14 14 15 16 16 17 18 19 19 21 23 25 26 28 30 32 33 34 36 39 40 41 42 42 43 43 43 44 44 44 45 45 44 43 41 40 39 39 39 38 37 37 36 36 35 32 29 27 26 25 24 23 23 22 21 20 19 18
5 4 4 4 4 4 5 5 5 5 6 6 6 7 7 8 8 9 9 10 10 11 11 12 12 13 14 15 16 17 17 18 18 19 19 20 21 22 24 25 27 28 29 30 31 33 35 37 38 39 40 40 40 40 40 41 41 41 41 41 40 40 39 39 39 39 39 39 38 37 37 35 32 30 28 26 25 24 23 23 22 21 20 18 17
5 4 4 4 4 3 4 4 4 5 5 6 6 7 8 9 9 10 11 11 12 12 13 14 14 15 16 17 18 19 20 20 21 21 22 23 23 24 25 26 27 28 29 29 30 31 33 34 35 36 37 37 37 38 38 38 38 38 38 39 39 39 39 38 38 38 39 39 38 37 37 35 32 30 28 27 25 23 23 22 21 20 19 18 16
4 3 3 3 3 3 3 4 4 5 5 6 7 8 9 10 11 12 13 13 14 15 15 16 16 17 18 19 20 21 23 23 23 24 24 25 26 26 27 27 28 28 29 29 30 31 32 33 34 35 36 36 37 37 37 37 37 37 37 37 37 37 37 38 38 38 38 38 38 37 36 34 32 30 28 26 24 23 23 22 21 20 19 18 16
3 3 2 2 2 3 3 4 5 6 7 8 9 10 11 12 13 14 15 16 17 17 18 18 19 20 21 22 23 24 24 25 26 26 26 27 27 28 28 28 29 29 29 30 30 31 32 33 34 35 36 36 37 37 38 38 38 38 37 37 36 36 36 36 36 37 38 39 38 37 36 34 31 29 27 26 24 24 23 22 20 20 19 17 16
2 2 2 2 3 4 5 6 7 8 10 11 12 13 14 15 16 17 18 19 19 20 21 21 22 22 23 24 25 25 26 27 27 28 28 28 29 29 29 30 30 30 30 31 31 31 32 34 34 35 35 36 37 38 39 39 39 38 38 38 38 38 37 36 36 37 38 39 38 37 35 33 31 29 27 26 25 24 22 21 20 20 18 17 17
1 2 3 5 6 7 9 10 11 12 13 14 14 15 16 17 18 19 20 20 21 22 23 23 24 24 25 25 26 27 28 28 29 30 30 30 31 31 31 31 31 31 32 32 32 32 33 34 34 35 35 36 38 39 40 40 39 39 39 39 39 39 39 37 36 35 35 36 37 36 34 33 31 29 27 26 25 24 23 21 21 20 19 18 17
4 5 7 8 9 10 11 12 13 14 14 15 16 17 18 19 20 21 22 23 23 24 25 26 26 27 28 28 29 29 30 31 31 32 32 32 33 33 33 33 33 33 33 34 34 34 34 34 35 35 35 36 37 38 39 40 40 40 40 40 41 41 40 37 34 32 32 33 35 35 34 32 30 29 27 26 25 24 23 21 21 20 19 19 18
7 8 9 10 10 11 12 13 14 15 16 17 18 19 20 21 22 23 24 25 26 27 28 29 29 30 31 31 32 32 33 34 34 34 35 35 35 35 35 35 35 35 35 35 35 35 35 35 35 35 35 36 37 37 38 39 39 40 41 41 42 42 40 37 33 31 31 32 33 33 32 31 30 29 27 26 25 24 23 22 22 21 20 19 18
8 9 10 11 11 12 14 14 15 16 17 18 20 21 22 23 24 25 26 27 28 29 30 31 31 32 33 33 34 35 35 35 36 36 36 37 37 37 37 37 37 37 37 36 35 34 34 34 34 34 35 35 36 37 37 38 39 40 41 41 41 41 40 36 33 32 32 31 31 31 31 31 30 29 28 27 26 25 24 23 22 21 20 19 18
10 10 11 12 13 14 15 16 17 18 19 20 22 23 24 25 26 27 28 29 30 31 32 32 33 34 34 34 35 36 36 37 37 37 37 38 38 37 37 37 37 37 37 36 35 34 33 32 32 33 34 34 35 36 37 37 38 39 40 40 39 39 38 35 33 32 31 31 31 31 32 31 30 30 29 28 27 25 23 22 22 21 20 19 18
12 13 14 15 16 17 18 19 20 21 22 23 25 26 27 28 29 30 31 32 33 33 34 35 35 36 36 36 37 37 38 38 39 39 39 39 39 39 38 38 37 37 37 36 36 34 33 33 33 33 34 34 34 35 35 36 37 38 38 38 37 36 35 34 32 31 31 31 32 33 33 32 31 30 29 28 27 25 24 23 22 21 20 19 17
15 16 17 18 20 21 22 23 24 25 26 27 28 29 29 30 31 32 33 34 35 35 36 36 37 37 38 38 38 39 39 39 40 40 40 40 40 40 40 39 38 37 37 36 36 35 35 34 34 34 34 34 33 33 33 34 35 36 37 36 35 34 32 32 31 31 31 32 33 33 33 32 31 31 29 28 27 26 24 23 22 21 20 19 17
19 20 21 22 23 24 25 26 27 28 28 29 30 31 32 32 33 33 34 35 35 36 36 36 37 37 37 38 38 38 39 39 39 39 40 40 40 40 40 39 39 38 37 37 36 36 35 36 35 35 35 34 33 32 32 32 33 34 34 34 33 32 31 31 30 30 31 32 32 33 33 32 31 31 29 28 27 26 25 24 22 21 20 18 17
Wind_Direction
254 252 250 249 248 248 247 246 245 245 244 244 244 244 246 246 247 247 248 249 249 250 250 248 240 234 235 240 241 241 243 241 241 249 254 249 244 245 244 226 210 205 206 206 204 204 207 208 209 210 210 212 214 218 223 230 238 253 269 287 306 317 324 325 328 336 337 335 335 333 333 335 337 338 340 343 343 344 345 345 347 348 347 346 346
255 254 252 249 247 247 246 244 243 242 242 242 242 244 245 246 246 246 246 247 249 250 251 249 241 235 236 240 242 243 243 241 241 248 255 253 245 242 237 220 208 205 206 206 205 205 207 209 210 211 211 212 216 219 225 232 239 253 270 287 306 314 319 324 325 329 335 335 332 331 331 334 335 338 340 342 342 343 343 344 346 348 346 345 344
257 257 255 251 248 246 244 243 243 242 242 241 242 243 245 245 245 244 245 247 248 249 250 247 241 238 237 239 241 243 243 241 240 241 253 258 247 243 239 222 209 207 206 206 207 208 209 209 210 212 212 214 217 221 225 231 239 251 265 286 306 313 318 323 324 327 331 333 332 330 332 334 335 338 341 340 340 341 342 344 346 346 346 345 344
259 260 260 258 254 251 249 247 246 246 245 244 244 244 243 243 243 244 246 248 248 249 249 246 243 240 237 237 239 241 244 241 235 234 252 260 248 242 241 225 212 209 209 207 209 211 211 211 212 213 214 215 218 222 226 230 237 248 262 282 303 311 316 319 321 325 328 330 332 332 333 335 337 338 338 338 338 340 342 344 343 343 345 345 344
263 264 265 265 262 260 256 252 250 249 248 248 248 247 246 246 247 248 249 249 249 250 249 246 244 239 237 238 238 243 247 239 231 234 252 255 246 240 238 226 214 209 209 210 211 213 213 213 214 215 216 218 220 222 225 230 235 245 262 282 298 307 311 316 320 324 325 327 331 333 333 335 336 336 336 336 337 338 341 343 341 340 342 344 346
266 267 265 263 262 260 258 253 250 249 249 250 251 251 250 249 248 249 250 250 250 252 252 249 244 239 239 240 239 246 248 236 227 236 248 251 249 241 232 223 215 210 209 210 212 214 214 214 215 216 217 219 221 224 226 229 235 242 260 280 292 302 308 313 318 321 323 326 330 333 334 334 333 334 334 335 336 336 337 339 338 338 341 344 346
265 266 266 263 260 260 258 255 252 250 250 251 251 251 250 248 247 246 246 247 250 253 253 252 248 241 238 237 241 250 246 232 226 233 241 247 250 241 227 218 214 210 209 210 212 214 214 215 216 217 219 220 220 224 226 228 234 241 259 278 289 298 305 311 315 318 320 325 329 331 333 331 330 331 333 334 335 335 335 336 336 337 342 345 347
271 272 274 273 269 268 265 263 261 258 257 256 255 254 252 249 248 247 247 249 251 252 251 250 250 247 239 231 237 248 240 230 230 233 237 243 244 236 224 215 212 210 209 210 212 214 214 215 216 217 219 220 220 222 226 227 231 241 258 275 285 293 301 306 311 315 320 324 327 328 329 328 327 329 331 332 333 335 335 335 335 336 341 347 350
276 274 275 276 274 271 266 264 263 261 261 260 259 257 254 250 247 245 245 246 247 248 248 245 245 249 244 233 231 236 234 232 233 232 234 241 238 229 220 214 212 210 209 211 213 215 216 216 216 218 219 219 220 222 224 227 231 241 254 269 281 289 296 301 307 313 319 322 324 325 326 325 325 327 330 332 334 335 334 333 334 337 339 345 351
273 272 273 273 271 270 266 262 260 259 260 260 259 258 255 252 248 243 241 239 240 242 242 242 243 245 245 238 231 231 236 235 231 228 234 243 239 227 218 213 212 211 211 213 214 215 216 217 217 218 218 218 221 222 223 226 231 241 253 266 278 286 293 298 304 312 317 320 321 322 323 323 324 326 329 332 333 333 332 332 335 337 337 340 347
273 270 272 272 272 272 270 266 263 261 261 260 259 257 254 251 248 244 240 235 235 236 237 241 244 242 244 242 232 231 239 236 229 230 237 243 239 228 218 214 213 213 213 215 218 218 218 217 217 218 218 219 221 221 222 226 233 243 254 266 276 284 291 296 303 311 314 317 319 320 320 322 324 325 327 330 331 331 332 333 335 336 338 339 343
280 271 269 270 270 270 268 267 266 264 262 261 258 254 251 249 246 244 242 237 234 234 234 238 241 241 247 245 233 230 236 231 228 234 240 243 237 226 219 217 216 215 215 216 219 220 220 219 218 218 219 220 220 221 223 227 233 244 255 267 276 283 289 295 302 308 311 315 318 318 319 321 323 324 325 328 329 329 331 333 334 335 338 340 342
281 276 271 269 268 267 266 265 265 264 263 261 257 251 246 245 243 241 241 238 235 234 234 235 237 240 248 248 239 234 232 227 226 232 239 244 236 223 219 220 219 218 218 217 219 220 220 220 219 219 220 220 220 220 222 226 233 243 254 266 275 283 289 293 300 305 309 314 316 317 318 320 321 322 323 325 327 328 329 331 333 334 336 339 341
276 274 273 271 270 268 266 263 263 262 259 256 253 247 240 237 238 236 234 233 233 235 235 235 238 243 249 250 244 237 229 226 229 235 242 244 234 221 219 220 221 222 221 221 222 221 221 221 221 222 222 222 221 222 223 227 233 242 254 264 275 283 288 292 297 303 308 311 314 316 316 317 318 319 321 322 324 326 328 330 331 332 334 335 339
275 274 273 274 273 270 267 264 261 258 253 249 245 241 234 228 226 225 225 229 232 235 236 235 240 246 249 248 242 232 225 226 234 241 244 240 228 219 219 220 221 222 222 223 224 223 222 222 223 223 224 223 223 223 223 227 233 243 253 263 275 281 284 290 295 301 306 309 312 314 314 314 315 316 317 319 321 324 326 328 328 328 329 331 337
278 278 277 276 273 270 265 262 259 257 252 245 238 234 229 225 224 224 227 232 234 234 236 237 239 242 245 245 236 227 225 231 238 240 239 233 224 219 219 221 222 222 222 223 223 223 223 223 223 223 223 223 224 223 224 228 234 243 253 264 277 283 285 290 294 297 302 305 308 311 312 311 312 313 314 317 320 321 323 325 324 324 325 328 334
279 279 278 276 272 268 263 260 259 258 256 249 240 232 227 224 225 228 233 238 239 238 237 238 238 239 243 242 231 225 230 242 245 242 238 232 225 222 222 223 224 224 223 223 223 223 223 223 223 224 225 225 225 224 226 230 236 243 254 267 279 286 290 294 295 295 298 301 304 307 307 307 308 309 312 315 317 319 320 321 321 321 324 326 329
275 277 277 274 270 266 261 260 260 259 260 255 244 235 228 226 226 229 234 237 240 243 242 240 240 239 239 234 227 231 245 253 252 249 243 235 228 225 225 226 226 225 224 223 223 224 223 224 224 225 226 226 226 226 228 233 239 245 256 270 281 288 292 296 295 292 293 297 300 302 302 303 305 307 311 313 314 315 316 317 318 319 321 324 325
268 270 271 268 266 265 262 260 259 258 258 255 247 237 229 226 227 230 233 233 234 239 242 240 239 237 233 230 233 244 254 256 255 254 246 236 229 227 227 228 228 227 226 225 224 224 224 225 225 226 227 225 225 227 231 235 241 248 257 270 281 288 292 297 294 288 289 294 296 297 299 300 303 305 308 310 310 311 312 313 315 316 317 320 321
257 258 259 258 258 259 257 254 253 252 252 250 246 239 230 225 225 228 232 231 230 234 239 239 237 235 234 237 245 252 255 254 255 253 245 235 230 228 228 230 230 230 229 228 227 227 227 227 227 227 227 226 226 229 233 238 243 249 258 269 279 286 291 295 291 285 285 289 292 293 296 298 300 303 305 306 306 307 308 309 311 313 315 315 315
250 250 252 252 252 252 250 249 247 245 244 244 242 239 234 229 228 228 229 230 230 232 237 238 238 239 241 246 251 255 256 257 257 254 245 237 231 230 231 233 234 234 234 233 232 232 232 231 231 230 229 228 229 232 236 240 244 250 259 268 276 283 288 291 289 285 282 283 286 290 292 295 297 299 301 301 301 303 304 306 308 311 313 312 309
248 247 248 249 248 246 243 244 245 244 245 247 246 244 241 236 235 235 234 234 235 236 238 240 242 244 247 251 255 257 259 260 257 251 243 236 233 232 233 235 237 237 236 236 235 235 236 236 235 235 233 232 232 235 239 242 246 252 259 266 272 280 285 288 288 284 279 277 282 286 289 292 294 295 297 298 299 301 302 302 305 308 308 307 304
245 244 245 246 245 243 242 243 246 247 247 248 247 245 243 240 239 239 239 240 241 243 244 245 247 249 251 254 256 258 257 254 249 242 238 234 233 234 235 236 237 237 237 238 239 239 240 239 238 237 237 235 235 237 241 245 248 253 259 264 271 278 283 285 285 281 276 275 280 284 286 289 291 293 296 297 298 300 301 301 303 304 303 302 300
243 242 242 242 240 240 240 239 241 241 240 240 240 239 238 238 239 240 242 243 245 247 248 250 251 253 255 256 256 256 254 249 242 237 235 233 233 234 236 236 237 237 238 239 240 240 242 242 241 240 239 237 237 240 243 246 249 253 257 262 269 276 281 283 282 278 274 275 280 283 285 287 288 290 293 296 297 298 299 300 300 300 299 298 297
233 229 227 226 222 221 223 223 225 228 228 230 233 234 236 239 241 244 247 249 252 254 256 257 258 259 260 261 260 260 258 253 246 240 237 235 234 235 237 238 239 240 240 241 240 240 240 241 242 242 241 239 239 241 244 246 248 253 257 261 268 275 277 276 276 277 277 276 278 280 282 283 284 287 289 293 296 297 298 298 297 295 295 295 293
207 202 197 196 195 196 200 203 209 214 220 225 229 232 236 240 243 249 253 256 261 265 265 267 267 266 266 266 266 265 264 260 255 248 243 240 238 238 239 240 241 242 242 242 241 240 240 239 238 238 239 240 240 241 244 246 249 253 256 259 265 270 269 266 270 275 277 275 274 275 276 278 280 283 286 290 293 295 295 295 294 292 291 291 290
183 179 177 177 178 182 189 195 201 208 214 221 227 231 237 243 248 255 260 264 268 271 272 274 275 275 275 274 272 270 268 265 260 254 250 246 244 244 244 244 243 243 243 243 243 242 241 239 237 236 237 239 241 243 244 246 248 251 254 258 263 265 263 263 265 269 271 271 270 270 271 274 276 279 283 287 291 293 293 293 292 290 288 288 287
171 169 171 173 174 180 189 195 202 210 217 223 228 231 237 245 249 252 257 261 265 268 271 274 276 278 278 275 273 270 267 266 264 261 258 255 252 250 249 248 248 247 246 245 245 244 243 241 239 238 237 238 241 243 244 246 248 251 255 259 262 262 262 265 267 267 268 268 267 268 269 270 273 275 280 284 288 290 291 291 291 289 285 284 284
166 167 170 172 175 184 195 203 215 227 236 244 248 249 252 256 258 259 261 265 266 267 268 269 270 271 270 268 268 268 268 269 271 269 265 262 258 256 255 254 254 253 251 249 248 246 245 245 243 242 241 242 244 245 246 247 249 252 256 259 261 263 265 269 271 270 268 267 266 267 268 268 270 273 277 282 286 288 289 290 289 288 284 281 280
164 167 172 174 183 200 216 239 257 266 275 280 282 281 281 282 283 282 281 279 279 278 277 277 275 272 270 269 269 270 271 270 267 264 263 262 261 260 260 259 258 257 255 252 250 248 248 248 248 247 246 247 248 248 249 249 250 253 258 261 263 265 268 271 272 270 268 266 266 266 266 266 268 271 275 280 283 284 286 287 286 286 284 280 277
159 164 169 179 206 244 270 288 299 303 303 305 307 306 303 301 301 299 297 294 292 290 289 289 286 283 281 278 274 272 271 269 266 263 263 264 264 264 264 263 263 261 259 257 254 252 252 251 251 251 251 250 251 251 251 251 252 256 260 263 264 267 270 272 272 270 268 266 266 266 265 265 266 270 274 278 280 281 282 283 284 285 284 280 276
158 161 162 181 222 265 280 292 303 307 308 312 315 315 315 316 313 311 310 308 305 303 301 299 296 293 290 287 282 277 273 271 268 267 266 265 266 267 267 267 266 266 265 262 259 257 255 254 254 255 254 254 255 255 255 255 255 258 262 265 266 269 273 274 273 270 268 266 265 265 264 264 265 268 272 275 278 279 280 280 282 283 281 278 275
172 174 178 193 209 232 259 275 288 294 299 305 307 307 310 312 312 312 312 311 310 310 309 308 306 302 299 296 293 287 281 276 272 270 267 266 266 267 268 268 269 268 266 264 262 261 259 258 258 258 257 258 258 258 258 259 259 260 263 266 269 272 275 275 272 270 267 266 265 264 263 263 263 266 269 273 275 277 278 279 280 280 278 275 273
180 183 187 196 208 228 252 270 281 289 293 296 297 297 298 299 300 302 303 303 304 306 308 308 308 307 305 303 300 296 291 286 282 278 275 271 268 269 271 271 270 267 265 264 264 264 263 262 261 261 261 261 261 261 261 262 261 261 263 266 270 273 276 275 273 271 268 265 264 264 263 262 262 265 268 271 272 274 277 279 278 277 276 274 271
180 184 187 195 210 226 251 270 280 289 294 294 296 297 297 298 300 301 302 304 305 307 309 309 309 309 307 305 303 299 296 292 288 285 282 278 274 272 271 270 269 268 267 267 267 267 267 267 266 266 266 266 266 266 267 267 266 265 265 267 270 273 276 277 275 272 269 266 264 264 263 262 262 264 266 268 271 273 276 276 275 274 274 272 270
171 174 177 183 193 209 239 265 276 284 289 291 293 295 296 298 301 302 304 307 308 309 311 312 311 310 309 306 304 301 297 294 291 288 286 284 279 274 271 270 270 271 271 271 272 272 273 273 273 273 272 272 272 272 272 272 271 269 267 266 268 271 275 276 275 272 269 265 264 264 262 261 260 261 263 266 269 271 273 273 271 270 270 270 268
163 166 170 177 191 218 240 258 270 275 280 285 289 292 296 298 301 303 305 307 309 309 310 310 309 308 307 305 303 302 300 298 297 295 293 290 285 281 278 278 276 275 275 276 276 276 276 277 277 277 276 276 276 275 274 274 273 271 269 267 268 270 274 275 273 270 267 264 262 261 259 258 257 258 261 264 267 269 269 269 268 268 268 267 266
168 178 194 209 229 245 251 260 267 270 276 283 285 289 294 296 299 303 304 305 308 308 309 309 309 308 306 304 304 304 303 302 303 302 299 297 293 290 288 287 284 282 282 282 281 280 280 280 280 279 279 279 278 278 277 277 276 274 273 271 271 272 273 273 272 268 264 260 259 258 256 255 255 256 259 262 265 266 266 264 263 263 263 263 263
188 199 210 220 230 241 249 259 268 271 280 287 289 293 299 301 302 306 306 307 309 310 310 312 312 310 309 309 308 307 305 305 306 306 303 302 300 298 296 294 292 291 291 289 287 285 283 283 282 282 281 282 281 281 281 280 280 278 277 275 273 272 272 273 271 268 263 260 258 257 255 254 254 255 258 260 262 262 261 261 261 260 260 260 260
192 197 206 218 230 241 253 263 272 278 286 293 297 302 305 306 307 309 309 310 311 311 311 313 313 312 312 311 311 310 309 309 309 309 307 306 306 304 302 300 299 298 297 296 294 291 289 288 287 285 284 283 283 282 281 281 280 279 278 276 275 274 273 272 270 267 262 259 257 256 255 253 252 253 255 258 258 257 256 256 257 258 258 258 257
184 194 208 222 238 252 263 274 284 290 297 302 304 306 307 307 307 308 308 309 309 309 310 311 311 310 310 310 310 309 308 308 308 307 306 306 305 304 303 302 301 300 299 298 296 295 293 292 290 288 286 285 283 281 279 278 277 276 276 276 275 274 273 270 268 264 261 257 255 254 253 250 250 251 254 256 255 252 251 252 252 253 254 255 255
175 191 206 224 247 267 284 295 299 304 307 307 307 307 307 307 307 307 308 309 309 309 309 309 309 309 308 307 307 305 304 304 303 301 300 300 300 299 299 299 299 298 297 296 294 293 291 290 289 288 286 285 283 281 279 276 274 273 273 273 272 271 270 269 266 263 260 256 253 252 251 249 249 250 252 252 250 248 248 248 248 249 251 252 253
181 200 237 272 286 299 305 305 306 308 307 306 307 308 307 308 308 309 310 310 309 309 309 308 308 307 306 305 304 303 302 301 300 299 299 298 297 296 296 296 295 294 293 292 291 289 287 287 286 285 285 284 283 281 279 277 274 272 271 270 270 269 269 269 266 262 258 255 253 251 249 248 248 249 249 248 247 246 245 244 244 246 248 249 252
254 290 304 307 309 310 309 308 309 309 307 308 309 308 308 310 310 309 309 309 309 309 308 307 307 306 305 304 303 302 302 302 300 300 299 298 297 296 295 294 293 292 290 290 289 287 285 284 284 284 283 282 281 280 279 277 275 272 270 269 269 269 268 268 266 263 259 256 254 252 249 248 247 247 247 246 244 242 241 241 242 245 246 248 250
309 310 310 309 308 307 307 307 308 308 308 309 310 309 310 310 309 309 309 308 308 307 307 307 306 306 305 304 304 303 302 302 301 300 299 299 298 297 295 294 293 291 290 289 288 287 286 285 284 283 282 281 280 279 278 277 275 273 269 268 267 266 266 267 267 264 259 255 253 251 249 247 247 246 245 243 241 239 239 240 241 243 246 248 249
304 303 303 303 303 304 305 306 307 308 309 309 309 309 309 309 309 309 309 308 308 308 307 307 307 306 305 305 304 303 303 302 301 300 300 299 298 297 296 295 294 292 291 290 289 288 288 287 287 286 285 283 281 279 278 276 275 272 270 267 265 264 263 263 262 257 252 249 249 249 247 245 245 243 241 239 237 236 236 238 240 243 245 247 248
298 299 299 301 302 303 304 306 307 307 308 308 308 308 308 308 309 309 309 309 309 309 308 308 307 307 306 306 305 304 303 303 302 301 300 300 299 298 297 296 295 293 292 291 289 288 287 287 287 287 286 284 283 281 280 278 275 273 271 268 265 263 261 260 257 252 247 244 243 244 243 242 241 240 238 235 234 234 234 237 239 241 242 244 244
296 297 298 300 301 302 303 305 305 305 305 306 307 307 307 308 308 308 308 308 308 308 308 307 307 306 306 306 305 305 304 303 302 302 301 300 300 299 298 298 297 295 294 292 290 288 287 287 286 286 285 285 284 283 281 279 277 274 272 269 265 262 260 257 253 249 244 239 237 238 238 238 238 237 235 233 233 234 235 236 237 237 238 239 239
297 298 300 301 302 302 303 303 303 303 304 304 304 305 306 306 306 306 306 306 306 306 306 305 305 305 305 305 305 305 304 304 303 303 303 302 302 302 301 300 299 298 297 295 293 290 288 288 287 287 287 286 286 284 282 280 278 275 273 270 266 263 259 254 249 243 238 235 234 235 235 236 235 234 232 231 233 234 233 233 232 232 233 234 235
298 299 300 300 301 301 301 301 301 302 302 302 303 303 303 303 303 304 303 303 304 304 304 304 304 304 304 304 304 304 304 304 305 305 305 305 305 304 304 303 302 301 300 298 295 292 290 288 288 289 289 289 287 285 284 282 279 276 273 270 266 262 256 250 244 237 232 231 233 234 235 235 234 231 229 229 231 232 231 230 228 228 229 230 232
297 297 298 299 299 299 299 300 300 300 301 301 301 301 301 301 301 301 301 301 302 302 302 302 302 302 303 303 304 304 304 305 305 305 305 305 305 305 305 304 303 302 301 300 298 295 293 291 291 290 290 290 289 287 285 283 280 278 274 270 266 260 252 245 238 231 228 229 232 234 235 234 232 229 228 229 229 230 229 227 225 225 225 227 229
Height
1487 1488 1488 1489 1490 1491 1493 1494 1496 1498 1499 1500 1501 1502 1504 1505 1506 1507 1508 1509 1511 1512 1514 1516 1517 1519 1520 1521 1523 1524 1525 1527 1528 1529 1531 1531 1532 1533 1532 1533 1534 1536 1538 1540 1542 1543 1545 1546 1547 1548 1549 1550 1550 1551 1551 1552 1552 1552 1552 1553 1553 1552 1552 1552 1552 1552 1552 1550 1549 1548 1546 1545 1544 1542 1541 1539 1537 1536 1534 1532 1529 1526 1523 1521 1520
1483 1484 1485 1486 1487 1488 1489 1490 1492 1494 1495 1496 1498 1499 1500 1501 1503 1504 1504 1506 1507 1509 1511 1513 1514 1516 1517 1519 1520 1522 1523 1525 1526 1527 1528 1529 1529 1530 1530 1531 1533 1534 1536 1538 1540 1541 1543 1544 1545 1546 1547 1548 1548 1549 1549 1550 1550 1550 1550 1550 1551 1550 1550 1550 1549 1549 1549 1548 1547 1546 1544 1543 1541 1540 1538 1536 1535 1533 1532 1530 1527 1525 1522 1520 1518
1479 1480 1481 1482 1482 1483 1485 1487 1489 1490 1492 1493 1494 1496 1497 1498 1500 1500 1501 1503 1504 1506 1508 1510 1511 1513 1514 1515 1517 1519 1520 1522 1522 1523 1525 1526 1526 1528 1529 1530 1531 1533 1535 1536 1538 1539 1540 1542 1543 1544 1545 1545 1546 1547 1547 1548 1548 1548 1548 1548 1548 1548 1548 1548 1547 1546 1546 1546 1545 1544 1542 1541 1539 1538 1536 1534 1533 1531 1529 1527 1525 1524 1521 1518 1516
1476 1476 1477 1478 1479 1480 1481 1484 1486 1487 1488 1490 1491 1493 1495 1496 1497 1498 1499 1500 1502 1503 1505 1507 1508 1509 1511 1512 1513 1515 1517 1518 1519 1520 1521 1522 1523 1525 1526 1528 1530 1531 1533 1534 1536 1537 1538 1539 1540 1541 1542 1543 1544 1544 1545 1546 1546 1546 1546 1546 1546 1546 1546 1545 1545 1544 1543 1543 1542 1541 1540 1538 1537 1535 1534 1532 1531 1529 1527 1525 1523 1522 1520 1517 1514
1473 1473 1474 1475 1476 1477 1478 1480 1482 1483 1485 1487 1489 1491 1492 1493 1494 1495 1496 1497 1499 1500 1502 1503 1505 1506 1507 1508 1510 1512 1513 1513 1514 1516 1517 1519 1520 1522 1523 1525 1527 1529 1531 1532 1534 1535 1536 1537 1538 1539 1540 1541 1541 1542 1543 1543 1544 1544 1544 1544 1544 1544 1544 1543 1542 1541 1540 1540 1539 1539 1537 1536 1535 1533 1532 1530 1528 1527 1525 1524 1522 1520 1519 1516 1513
1470 1471 1472 1472 1473 1474 1475 1476 1478 1480 1482 1484 1486 1487 1489 1490 1491 1492 1494 1495 1497 1498 1499 1500 1501 1503 1504 1506 1507 1508 1508 1509 1510 1512 1514 1515 1516 1518 1520 1522 1525 1526 1528 1530 1531 1533 1534 1534 1535 1536 1537 1538 1539 1540 1541 1541 1542 1542 1542 1542 1542 1542 1541 1541 1540 1539 1538 1537 1537 1536 1535 1533 1532 1531 1530 1528 1526 1523 1522 1522 1521 1519 1517 1514 1511
1468 1469 1469 1470 1472 1472 1473 1474 1475 1477 1478 1480 1482 1483 1484 1486 1488 1490 1492 1493 1494 1496 1497 1498 1499 1500 1501 1503 1504 1505 1505 1506 1508 1508 1510 1511 1513 1514 1516 1518 1521 1523 1525 1527 1528 1530 1531 1532 1533 1534 1535 1536 1536 1537 1538 1539 1539 1539 1539 1539 1539 1539 1538 1538 1537 1537 1536 1535 1534 1533 1532 1531 1530 1529 1527 1526 1524 1521 1519 1518 1517 1516 1514 1511 1508
1467 1468 1468 1469 1470 1471 1472 1472 1473 1474 1475 1476 1478 1479 1480 1482 1484 1487 1489 1490 1492 1493 1495 1496 1496 1497 1498 1498 1500 1500 1501 1503 1505 1505 1507 1508 1509 1510 1512 1514 1517 1520 1522 1524 1525 1527 1528 1529 1530 1531 1532 1533 1534 1535 1536 1536 1537 1537 1537 1537 1537 1536 1536 1535 1535 1534 1533 1532 1532 1531 1530 1529 1528 1526 1525 1523 1522 1520 1517 1516 1514 1512 1510 1508 1506
1466 1466 1467 1467 1468 1468 1469 1470 1470 1471 1472 1473 1474 1475 1477 1479 1481 1483 1485 1487 1489 1490 1492 1493 1493 1494 1494 1495 1496 1497 1498 1500 1501 1502 1504 1505 1506 1507 1509 1511 1514 1516 1518 1520 1522 1524 1525 1526 1528 1529 1530 1530 1531 1532 1533 1534 1534 1534 1534 1534 1534 1534 1533 1533 1532 1532 1531 1530 1529 1528 1528 1527 1525 1524 1522 1520 1519 1517 1515 1514 1512 1509 1507 1506 1504
1464 1464 1464 1465 1465 1466 1467 1467 1468 1468 1469 1470 1471 1472 1473 1475 1476 1479 1480 1483 1485 1487 1488 1489 1490 1491 1491 1492 1494 1494 1495 1497 1498 1500 1502 1502 1503 1504 1506 1509 1511 1513 1515 1517 1519 1521 1522 1524 1525 1526 1527 1528 1529 1530 1530 1531 1531 1532 1532 1532 1532 1531 1531 1531 1530 1529 1529 1528 1527 1526 1525 1524 1523 1521 1520 1518 1516 1515 1513 1511 1509 1507 1504 1502 1501
1462 1462 1462 1463 1463 1464 1464 1465 1466 1466 1467 1468 1468 1469 1470 1471 1473 1474 1476 1478 1481 1483 1484 1486 1487 1488 1489 1490 1491 1492 1493 1495 1497 1498 1499 1500 1501 1502 1504 1506 1508 1510 1512 1514 1516 1518 1519 1521 1522 1523 1524 1525 1526 1527 1528 1528 1528 1529 1529 1529 1529 1529 1528 1528 1527 1527 1527 1526 1525 1524 1523 1522 1520 1519 1517 1516 1515 1513 1511 1509 1507 1504 1502 1499 1497
1460 1460 1460 1461 1461 1462 1462 1463 1463 1464 1465 1465 1466 1467 1468 1469 1470 1471 1472 1475 1477 1479 1481 1483 1484 1486 1487 1488 1489 1490 1492 1493 1495 1496 1497 1498 1499 1500 1502 1504 1506 1507 1509 1511 1513 1515 1516 1518 1519 1520 1521 1522 1524 1524 1525 1525 1526 1526 1526 1526 1526 1526 1526 1526 1525 1524 1524 1524 1523 1522 1521 1519 1518 1516 1515 1514 1513 1511 1509 1507 1505 1503 1501 1498 1495
1458 1458 1458 1459 1459 1460 1461 1461 1461 1462 1462 1463 1464 1464 1465 1466 1467 1468 1470 1472 1474 1475 1478 1480 1482 1484 1485 1486 1487 1488 1489 1491 1492 1494 1495 1496 1497 1498 1500 1502 1503 1505 1507 1509 1510 1512 1514 1515 1516 1517 1519 1520 1521 1522 1522 1523 1523 1523 1524 1524 1524 1524 1523 1523 1522 1522 1522 1522 1521 1520 1518 1517 1516 1514 1513 1511 1510 1509 1507 1505 1503 1501 1499 1498 1496
1457 1457 1457 1457 1457 1458 1459 1459 1460 1460 1460 1460 1461 1461 1462 1463 1464 1466 1467 1469 1471 1473 1475 1477 1479 1480 1482 1483 1484 1485 1487 1490 1491 1492 1492 1493 1495 1496 1498 1500 1502 1503 1505 1506 1508 1509 1511 1512 1513 1515 1516 1517 1518 1519 1519 1520 1520 1521 1521 1522 1522 1521 1521 1520 1520 1520 1520 1519 1519 1518 1516 1515 1514 1512 1511 1509 1508 1506 1505 1503 1501 1500 1498 1497 1495
1455 1455 1455 1456 1456 1456 1457 1457 1458 1458 1458 1458 1459 1459 1460 1461 1463 1464 1465 1467 1469 1470 1472 1474 1476 1477 1478 1480 1481 1483 1486 1488 1489 1490 1490 1491 1492 1494 1496 1498 1499 1501 1502 1504 1506 1507 1509 1510 1511 1512 1513 1514 1515 1516 1517 1517 1518 1519 1519 1519 1519 1519 1519 1518 1518 1517 1517 1516 1516 1515 1514 1513 1512 1510 1509 1507 1506 1504 1503 1501 1500 1498 1497 1495 1494
1453 1453 1453 1454 1454 1455 1455 1455 1456 1456 1457 1457 1458 1459 1460 1461 1462 1463 1464 1466 1467 1468 1470 1472 1474 1475 1476 1477 1479 1482 1484 1486 1487 1487 1488 1489 1491 1493 1494 1496 1497 1498 1499 1501 1503 1504 1506 1507 1508 1509 1510 1512 1513 1513 1514 1515 1516 1516 1517 1517 1517 1517 1516 1516 1515 1515 1515 1514 1513 1512 1511 1510 1509 1508 1507 1505 1503 1502 1500 1500 1498 1497 1495 1493 1492
1450 1451 1451 1452 1452 1453 1453 1454 1454 1455 1456 1456 1457 1458 1459 1460 1462 1463 1464 1465 1466 1467 1469 1470 1472 1474 1475 1476 1478 1481 1483 1484 1485 1485 1486 1487 1489 1490 1492 1493 1494 1495 1496 1498 1500 1501 1503 1504 1505 1507 1508 1509 1510 1510 1511 1512 1513 1514 1514 1514 1514 1514 1513 1513 1513 1512 1512 1511 1510 1510 1509 1508 1507 1506 1504 1502 1501 1499 1498 1497 1496 1494 1493 1491 1489
1448 1448 1449 1450 1450 1450 1451 1452 1452 1453 1454 1455 1455 1457 1458 1459 1460 1461 1462 1463 1465 1466 1467 1469 1470 1472 1473 1475 1477 1479 1481 1482 1483 1483 1484 1485 1486 1488 1489 1490 1491 1492 1493 1495 1497 1498 1500 1501 1502 1504 1505 1506 1507 1508 1509 1510 1510 1511 1511 1511 1511 1511 1510 1510 1510 1510 1509 1508 1508 1507 1506 1505 1504 1503 1502 1500 1499 1498 1496 1495 1494 1492 1491 1489 1487
1445 1446 1447 1447 1448 1448 1449 1450 1451 1451 1452 1453 1453 1454 1455 1457 1458 1459 1460 1461 1462 1464 1465 1467 1468 1470 1472 1473 1475 1477 1478 1479 1480 1481 1482 1482 1483 1484 1485 1486 1487 1489 1490 1492 1493 1495 1496 1498 1499 1501 1502 1503 1504 1505 1506 1507 1507 1508 1508 1508 1508 1508 1507 1507 1507 1507 1506 1506 1505 1504 1503 1502 1501 1500 1499 1498 1496 1496 1494 1493 1492 1490 1488 1487 1486
1442 1443 1444 1444 1445 1446 1447 1448 1449 1450 1451 1451 1452 1452 1453 1454 1455 1456 1457 1459 1460 1462 1463 1465 1466 1468 1470 1471 1472 1473 1474 1476 1477 1478 1478 1479 1479 1481 1482 1483 1484 1486 1487 1489 1490 1491 1493 1495 1496 1497 1498 1499 1501 1502 1503 1503 1504 1504 1504 1504 1504 1504 1504 1504 1504 1504 1504 1503 1502 1501 1500 1499 1498 1497 1496 1495 1494 1493 1492 1491 1489 1488 1486 1485 1484
1439 1440 1440 1441 1442 1443 1444 1445 1446 1447 1448 1449 1450 1451 1452 1453 1453 1454 1455 1456 1458 1459 1461 1463 1464 1466 1467 1468 1468 1469 1470 1472 1474 1474 1474 1475 1477 1478 1479 1481 1482 1484 1485 1486 1487 1489 1490 1492 1493 1494 1495 1497 1498 1499 1499 1500 1500 1500 1500 1500 1501 1500 1500 1500 1501 1500 1500 1500 1499 1498 1497 1496 1496 1495 1494 1493 1492 1491 1490 1488 1487 1485 1484 1483 1482
1437 1437 1438 1439 1440 1441 1442 1443 1444 1445 1447 1448 1449 1450 1450 1451 1452 1452 1453 1454 1455 1457 1458 1460 1461 1462 1463 1464 1465 1465 1467 1468 1469 1470 1471 1472 1474 1475 1477 1479 1480 1482 1482 1483 1485 1486 1488 1489 1491 1492 1493 1494 1495 1496 1496 1496 1496 1497 1497 1497 1497 1497 1497 1497 1497 1497 1497 1496 1496 1495 1494 1494 1493 1492 1492 1491 1489 1488 1487 1486 1484 1483 1482 1481 1480
1435 1435 1436 1436 1438 1439 1440 1441 1442 1444 1445 1446 1447 1448 1449 1450 1450 1451 1452 1453 1453 1455 1456 1457 1458 1459 1460 1461 1461 1462 1462 1463 1464 1466 1468 1469 1471 1473 1475 1476 1477 1479 1480 1481 1483 1485 1486 1488 1489 1490 1490 1491 1492 1493 1493 1493 1493 1493 1493 1493 1493 1493 1493 1493 1493 1493 1493 1492 1492 1492 1491 1491 1490 1490 1489 1488 1487 1486 1485 1483 1482 1481 1480 1479 1478
1433 1433 1434 1434 1436 1437 1438 1439 1441 1442 1443 1444 1445 1446 1447 1448 1449 1450 1450 1451 1452 1453 1454 1455 1455 1456 1457 1458 1458 1458 1459 1460 1462 1463 1465 1467 1469 1470 1472 1473 1474 1476 1477 1479 1481 1483 1484 1485 1486 1487 1488 1489 1489 1489 1489 1489 1489 1489 1490 1490 1490 1490 1490 1490 1490 1489 1489 1489 1489 1488 1488 1488 1487 1486 1485 1484 1483 1483 1482 1480 1479 1478 1477 1477 1476
1431 1431 1432 1433 1434 1435 1436 1437 1439 1440 1441 1442 1443 1444 1446 1447 1448 1449 1449 1450 1451 1451 1452 1453 1454 1454 1455 1456 1456 1457 1458 1459 1460 1462 1464 1465 1466 1468 1469 1471 1472 1474 1476 1477 1479 1480 1481 1483 1484 1485 1485 1486 1486 1485 1484 1484 1485 1486 1486 1486 1486 1486 1486 1486 1486 1485 1485 1485 1485 1485 1485 1484 1483 1482 1482 1481 1480 1479 1478 1477 1476 1475 1475 1474 1474
1429 1430 1431 1431 1432 1434 1435 1436 1437 1438 1440 1441 1442 1443 1444 1445 1446 1447 1448 1449 1450 1450 1451 1452 1452 1453 1453 1454 1455 1455 1456 1457 1459 1461 1462 1463 1464 1465 1467 1469 1471 1472 1473 1474 1475 1477 1478 1479 1480 1481 1481 1481 1481 1480 1480 1480 1481 1482 1482 1481 1481 1481 1482 1481 1481 1481 1481 1481 1481 1481 1481 1480 1480 1479 1478 1477 1476 1476 1475 1474 1474 1473 1472 1471 1471
1428 1429 1430 1431 1432 1433 1434 1436 1437 1438 1439 1440 1441 1443 1443 1444 1445 1446 1447 1448 1448 1449 1449 1450 1450 1451 1451 1452 1453 1453 1454 1455 1457 1459 1460 1461 1462 1464 1465 1467 1468 1469 1470 1471 1472 1473 1474 1475 1476 1477 1477 1477 1475 1475 1475 1476 1476 1476 1476 1476 1476 1477 1477 1476 1476 1476 1476 1477 1476 1476 1476 1476 1475 1475 1474 1473 1473 1472 1472 1471 1471 1470 1469 1468 1468
1428 1430 1431 1432 1433 1434 1435 1436 1437 1438 1439 1440 1441 1442 1443 1443 1444 1445 1445 1446 1446 1447 1447 1448 1449 1449 1450 1451 1451 1451 1452 1453 1454 1456 1458 1459 1460 1462 1463 1464 1465 1465 1466 1467 1468 1469 1470 1470 1471 1472 1471 1471 1470 1469 1469 1470 1470 1471 1471 1471 1472 1472 1472 1472 1472 1472 1472 1472 1472 1472 1472 1471 1471 1470 1470 1469 1469 1469 1468 1468 1468 1467 1467 1466 1465
1429 1431 1432 1433 1434 1435 1436 1438 1438 1439 1440 1441 1441 1442 1442 1443 1443 1444 1444 1445 1445 1445 1446 1446 1447 1447 1448 1449 1449 1449 1450 1451 1453 1454 1455 1456 1457 1458 1459 1461 1462 1462 1463 1464 1465 1465 1465 1466 1466 1466 1466 1465 1464 1463 1463 1464 1465 1465 1466 1466 1467 1468 1468 1468 1468 1468 1468 1468 1467 1468 1467 1467 1467 1466 1466 1465 1465 1465 1464 1464 1464 1464 1464 1463 1463
1429 1431 1432 1433 1435 1436 1437 1438 1439 1440 1441 1441 1442 1443 1443 1443 1444 1444 1444 1444 1444 1445 1445 1445 1446 1446 1446 1447 1448 1448 1448 1449 1451 1451 1452 1452 1454 1455 1456 1457 1458 1458 1459 1460 1460 1460 1460 1460 1460 1460 1460 1459 1458 1457 1458 1459 1460 1460 1461 1462 1463 1463 1464 1463 1464 1464 1464 1463 1463 1463 1463 1463 1463 1462 1462 1462 1462 1461 1461 1461 1460 1460 1460 1460 1460
1429 1430 1431 1433 1434 1435 1436 1438 1439 1440 1441 1442 1442 1443 1443 1444 1444 1444 1445 1445 1445 1445 1445 1445 1445 1445 1445 1446 1446 1446 1447 1447 1448 1449 1449 1450 1451 1452 1453 1454 1454 1455 1455 1456 1456 1456 1456 1455 1455 1454 1454 1454 1453 1453 1454 1455 1455 1457 1458 1458 1459 1459 1459 1459 1459 1459 1459 1459 1459 1459 1459 1459 1459 1459 1458 1458 1458 1458 1457 1457 1457 1457 1457 1456 1456
1429 1429 1431 1432 1433 1434 1435 1436 1437 1439 1439 1440 1441 1442 1443 1444 1444 1444 1445 1445 1445 1445 1445 1444 1445 1444 1444 1444 1445 1445 1445 1445 1445 1446 1447 1448 1448 1449 1449 1450 1450 1451 1452 1452 1451 1451 1451 1450 1450 1449 1450 1449 1449 1449 1450 1451 1452 1454 1454 1454 1454 1454 1455 1455 1455 1455 1455 1455 1455 1455 1455 1455 1455 1455 1455 1454 1454 1454 1454 1453 1453 1453 1453 1453 1453
1428 1429 1430 1431 1432 1433 1434 1435 1436 1437 1437 1438 1439 1440 1441 1442 1442 1443 1443 1444 1444 1444 1444 1444 1444 1443 1443 1443 1443 1443 1443 1443 1443 1443 1444 1445 1445 1446 1446 1446 1446 1447 1447 1446 1445 1445 1446 1446 1445 1445 1445 1445 1445 1446 1447 1448 1449 1450 1450 1450 1450 1450 1451 1451 1451 1451 1450 1450 1451 1451 1451 1452 1451 1451 1451 1451 1450 1450 1450 1450 1450 1449 1449 1449 1449
1428 1429 1430 1430 1431 1432 1433 1434 1435 1435 1436 1437 1438 1438 1439 1439 1440 1441 1441 1442 1442 1442 1442 1442 1442 1442 1442 1442 1441 1441 1441 1441 1441 1441 1441 1442 1443 1443 1443 1443 1442 1442 1442 1440 1440 1440 1441 1441 1440 1441 1441 1441 1441 1442 1443 1444 1445 1446 1447 1447 1447 1446 1446 1446 1446 1446 1446 1446 1447 1447 1447 1447 1447 1447 1447 1447 1446 1446 1446 1446 1446 1445 1445 1446 1446
1427 1428 1429 1430 1431 1431 1432 1433 1434 1434 1435 1436 1436 1437 1438 1438 1438 1439 1439 1439 1440 1440 1440 1440 1440 1440 1440 1439 1439 1439 1438 1438 1438 1438 1438 1438 1439 1440 1440 1439 1438 1438 1437 1437 1436 1436 1436 1436 1437 1437 1438 1438 1438 1439 1440 1440 1442 1443 1443 1443 1442 1442 1441 1441 1441 1442 1442 1442 1442 1443 1443 1443 1443 1443 1443 1442 1442 1442 1442 1442 1442 1442 1442 1442 1442
1426 1427 1428 1429 1430 1430 1431 1432 1433 1433 1434 1435 1435 1436 1436 1436 1437 1437 1437 1437 1437 1437 1437 1438 1438 1438 1438 1437 1436 1436 1436 1435 1435 1435 1435 1435 1435 1435 1435 1434 1434 1434 1434 1433 1433 1433 1432 1432 1433 1433 1434 1434 1434 1434 1435 1435 1436 1437 1437 1437 1437 1436 1436 1436 1436 1436 1436 1437 1438 1438 1439 1439 1439 1438 1438 1438 1438 1438 1438 1438 1438 1438 1438 1438 1438
1425 1426 1427 1428 1429 1429 1430 1431 1432 1432 1433 1433 1434 1434 1434 1434 1435 1435 1435 1435 1435 1435 1436 1436 1435 1435 1435 1435 1434 1434 1433 1433 1433 1432 1432 1432 1432 1431 1431 1430 1430 1430 1430 1429 1429 1429 1427 1427 1428 1428 1428 1429 1429 1429 1429 1429 1430 1430 1430 1431 1431 1431 1431 1430 1430 1431 1431 1431 1432 1433 1433 1433 1434 1433 1433 1434 1434 1434 1434 1434 1434 1434 1434 1435 1435
1424 1425 1426 1427 1428 1429 1429 1430 1431 1431 1432 1432 1432 1432 1432 1432 1432 1432 1433 1433 1433 1433 1434 1433 1433 1433 1433 1432 1432 1431 1431 1430 1430 1430 1430 1429 1428 1428 1427 1427 1427 1426 1425 1425 1426 1424 1423 1423 1423 1423 1423 1423 1423 1423 1423 1423 1424 1424 1424 1425 1425 1425 1425 1425 1424 1425 1425 1426 1426 1427 1427 1428 1428 1428 1429 1429 1429 1429 1430 1430 1430 1431 1431 1431 1431
1423 1424 1426 1426 1427 1428 1429 1429 1429 1430 1430 1431 1431 1431 1431 1431 1431 1431 1431 1431 1431 1431 1431 1431 1431 1431 1430 1429 1429 1428 1428 1427 1427 1427 1427 1426 1426 1425 1424 1423 1423 1422 1422 1421 1421 1420 1419 1418 1418 1418 1418 1418 1418 1418 1418 1418 1418 1418 1419 1419 1419 1419 1419 1419 1418 1418 1419 1420 1421 1421 1422 1423 1423 1424 1424 1424 1425 1425 1425 1426 1426 1427 1427 1428 1428
1422 1423 1424 1425 1426 1427 1427 1427 1428 1428 1429 1429 1429 1430 1430 1430 1429 1429 1429 1429 1429 1428 1428 1428 1428 1428 1427 1426 1426 1425 1424 1424 1424 1423 1423 1422 1422 1422 1421 1420 1419 1419 1418 1417 1417 1416 1415 1414 1414 1413 1413 1412 1413 1412 1412 1412 1412 1412 1413 1413 1412 1412 1412 1412 1412 1412 1413 1414 1415 1416 1416 1417 1418 1418 1419 1420 1420 1421 1421 1422 1422 1423 1423 1424 1424
1421 1422 1423 1424 1425 1425 1426 1426 1427 1427 1427 1428 1428 1428 1428 1428 1428 1427 1427 1427 1426 1426 1426 1426 1425 1425 1424 1424 1423 1422 1421 1421 1420 1420 1419 1419 1418 1418 1417 1417 1416 1415 1414 1413 1413 1412 1411 1410 1409 1408 1408 1407 1407 1407 1407 1407 1406 1406 1406 1406 1406 1406 1406 1405 1405 1405 1406 1408 1409 1410 1411 1412 1413 1414 1414 1415 1416 1417 1417 1418 1419 1419 1420 1420 1421
1420 1421 1422 1423 1423 1424 1424 1425 1425 1425 1426 1426 1426 1426 1426 1426 1426 1425 1425 1424 1424 1424 1423 1423 1423 1422 1422 1421 1420 1420 1419 1418 1417 1417 1416 1416 1415 1415 1414 1413 1412 1411 1410 1409 1408 1407 1406 1405 1404 1403 1402 1402 1401 1401 1401 1400 1400 1400 1401 1400 1400 1400 1399 1399 1399 1400 1401 1402 1403 1404 1406 1407 1408 1409 1410 1411 1412 1413 1413 1414 1415 1416 1416 1417 1417
1419 1419 1420 1421 1421 1422 1422 1423 1423 1423 1424 1424 1424 1424 1424 1424 1423 1423 1422 1422 1422 1421 1420 1420 1420 1420 1419 1419 1418 1417 1416 1415 1414 1414 1413 1412 1412 1411 1410 1409 1408 1407 1406 1404 1403 1402 1401 1400 1399 1398 1397 1396 1396 1395 1394 1394 1394 1395 1394 1394 1394 1394 1393 1393 1393 1394 1395 1397 1398 1400 1401 1403 1404 1405 1406 1407 1408 1409 1410 1410 1411 1412 1413 1413 1414
1417 1418 1419 1419 1419 1420 1420 1420 1421 1421 1421 1421 1421 1421 1421 1421 1421 1421 1420 1420 1419 1418 1418 1418 1417 1417 1416 1416 1415 1414 1413 1412 1411 1410 1409 1408 1407 1406 1405 1404 1403 1401 1400 1399 1398 1397 1395 1394 1393 1392 1391 1390 1390 1389 1388 1388 1388 1388 1388 1388 1388 1388 1387 1388 1388 1389 1390 1392 1394 1395 1397 1398 1399 1400 1401 1402 1403 1404 1405 1406 1407 1408 1409 1410 1411
1415 1416 1417 1417 1418 1418 1418 1419 1419 1419 1419 1419 1419 1419 1419 1419 1419 1418 1418 1417 1417 1416 1415 1414 1414 1413 1412 1412 1411 1410 1409 1408 1406 1405 1404 1403 1401 1400 1399 1398 1397 1395 1394 1393 1392 1391 1389 1388 1387 1386 1385 1384 1384 1383 1382 1382 1382 1382 1382 1382 1381 1381 1381 1383 1384 1384 1385 1387 1389 1390 1392 1393 1394 1396 1397 1398 1399 1400 1401 1403 1404 1404 1405 1406 1407
1414 1415 1415 1416 1416 1416 1416 1417 1417 1416 1416 1417 1416 1416 1416 1416 1415 1415 1415 1414 1413 1412 1411 1410 1409 1408 1407 1407 1406 1405 1404 1402 1401 1400 1399 1397 1396 1395 1394 1392 1391 1390 1388 1387 1386 1385 1383 1382 1381 1380 1379 1378 1377 1377 1376 1375 1375 1375 1375 1375 1374 1375 1375 1377 1378 1378 1379 1381 1383 1385 1387 1388 1389 1391 1392 1393 1395 1396 1397 1399 1400 1401 1402 1403 1404
1413 1414 1414 1414 1414 1414 1414 1414 1414 1414 1414 1414 1413 1413 1413 1412 1412 1412 1411 1410 1409 1408 1407 1406 1405 1404 1402 1402 1401 1399 1398 1397 1396 1395 1394 1392 1391 1390 1388 1387 1385 1384 1383 1382 1380 1379 1378 1377 1375 1374 1373 1372 1371 1370 1369 1369 1368 1368 1368 1368 1368 1368 1369 1371 1372 1372 1373 1375 1378 1379 1381 1383 1384 1386 1387 1389 1390 1392 1393 1395 1396 1397 1398 1399 1400
1411 1412 1412 1412 1412 1412 1412 1411 1411 1411 1411 1410 1410 1409 1409 1408 1408 1407 1407 1406 1405 1404 1403 1402 1401 1399 1398 1397 1396 1394 1393 1392 1391 1389 1388 1387 1385 1384 1382 1381 1379 1378 1376 1375 1374 1373 1372 1370 1369 1368 1367 1366 1365 1364 1363 1362 1362 1361 1361 1362 1362 1362 1363 1365 1365 1366 1368 1370 1372 1374 1376 1378 1379 1381 1383 1384 1386 1387 1389 1391 1392 1393 1395 1396 1397
1409 1409 1409 1409 1409 1409 1408 1408 1408 1407 1407 1406 1406 1405 1404 1404 1404 1403 1402 1401 1400 1399 1398 1397 1395 1394 1393 1391 1390 1389 1388 1386 1385 1384 1382 1381 1379 1378 1376 1375 1373 1372 1370 1369 1367 1366 1365 1364 1363 1362 1361 1360 1359 1358 1357 1356 1355 1355 1355 1355 1356 1357 1358 1359 1360 1361 1363 1365 1367 1369 1371 1373 1375 1376 1378 1380 1382 1383 1385 1387 1388 1390 1391 1392 1393
1406 1406 1406 1405 1405 1405 1405 1404 1404 1403 1403 1402 1401 1400 1400 1399 1399 1398 1397 1396 1395 1394 1393 1391 1390 1388 1387 1385 1384 1383 1381 1380 1379 1378 1376 1375 1374 1372 1371 1369 1368 1366 1364 1363 1362 1360 1359 1358 1357 1356 1355 1354 1353 1352 1351 1350 1349 1349 1349 1349 1350 1351 1352 1353 1354 1355 1357 1359 1362 1364 1366 1368 1370 1372 1374 1376 1377 1379 1381 1383 1384 1386 1387 1389 1390
1403 1402 1402 1402 1401 1401 1401 1400 1400 1399 1398 1397 1396 1396 1395 1394 1394 1393 1392 1391 1390 1389 1387 1386 1385 1383 1382 1380 1379 1377 1376 1374 1373 1372 1371 1370 1368 1367 1365 1364 1362 1361 1359 1358 1356 1355 1354 1353 1351 1350 1349 1348 1347 1346 1345 1344 1344 1344 1344 1344 1345 1345 1346 1347 1348 1350 1352 1355 1358 1360 1362 1364 1366 1368 1370 1372 1374 1375 1377 1379 1381 1383 1384 1386 1387